Athol, MA

8:17 PM EST on February 20, 2017 (GMT -0500)
Orange Municipal

Weather History for KORE - March, 2015

Change the Weather History Date:

Wednesday, March 4, 2015

  Actual Average Record
Temperature  
Mean Temperature 36 °F -  
Max Temperature 39 °F 36 °F 54 °F (1999)
Min Temperature 33 °F 18 °F -8 °F (2003)
Degree Days  
Heating Degree Days 29    
Moisture  
Dew Point 29 °F    
Average Humidity 77    
Maximum Humidity 92    
Minimum Humidity 60    
Precipitation  
Precipitation 0.01 in - - ()
Sea Level Pressure  
Sea Level Pressure 29.76 in    
Wind  
Wind Speed 10 mph (SW)    
Max Wind Speed 16 mph    
Max Gust Speed 30 mph    
Visibility 10 miles    
Events      
Averages and records for this station are not official NWS values.
T = Trace of Precipitation, MM = Missing Value Source: NWS Daily Summary

Daily Weather History Graph

Daily Weather History Graph

Search for Another Location

Airport or City:

Trip Planner

Search our weather history database for the weather conditions in past years. The results will help you decide how hot, cold, wet, or windy it might be!

Date:

Astronomy

Mar. 04, 2015 Rise Set
Actual Time 6:20 AM EST 5:42 PM EST
Civil Twilight 5:52 AM EST 6:10 PM EST
Nautical Twilight 5:19 AM EST 6:43 PM EST
Astronomical Twilight 4:46 AM EST 7:15 PM EST
Moon 4:57 PM EST (3/4) 5:33 AM EST (3/4)
Length of Visible Light 12h 18m
Length of Day
11h 21m
Waxing Gibbous, 99% of the Moon is Illuminated
Mar 4
Waxing Gibbous
Mar 5
Full
Mar 13
Last Quarter
Mar 20
New
Mar 27
First Quarter

Hourly Weather History & Observations

Time (EST) Temp. Windchill Dew Point Humidity Pressure Visibility Wind Dir Wind Speed Gust Speed Precip Events Conditions
12:43 AM 33.1 °F 22.6 °F 30.0 °F 89% 29.71 in 10.0 mi SSW 16.1 mph 29.9 mph 0.01 in   Overcast
12:52 AM 33.1 °F 22.6 °F 30.0 °F 89% 29.73 in 10.0 mi South 16.1 mph 28.8 mph 0.01 in   Overcast
1:25 AM 34.0 °F 24.6 °F 30.9 °F 89% 29.69 in 10.0 mi South 13.8 mph 26.5 mph N/A   Overcast
1:52 AM 34.0 °F 25.0 °F 30.9 °F 89% 29.70 in 10.0 mi South 12.7 mph - N/A   Overcast
2:52 AM 34.0 °F 27.2 °F 32.0 °F 92% 29.67 in 10.0 mi South 8.1 mph - N/A   Overcast
3:40 AM 34.0 °F 27.2 °F 32.0 °F 92% 29.64 in 10.0 mi South 8.1 mph - N/A   Overcast
3:52 AM 34.0 °F 29.8 °F 32.0 °F 92% 29.67 in 10.0 mi South 4.6 mph - N/A   Overcast
4:42 AM 34.0 °F 27.2 °F 32.0 °F 92% 29.64 in 10.0 mi South 8.1 mph - N/A   Overcast
4:52 AM 34.0 °F 27.2 °F 32.0 °F 92% 29.66 in 10.0 mi South 8.1 mph - N/A   Overcast
5:52 AM 35.1 °F 26.9 °F 32.0 °F 89% 29.71 in 10.0 mi SSW 11.5 mph - N/A   Overcast
6:52 AM 35.1 °F 27.9 °F 32.0 °F 89% 29.71 in 10.0 mi SSW 9.2 mph - N/A   Overcast
7:52 AM 36.0 °F 31.1 °F 32.0 °F 86% 29.75 in 10.0 mi East 5.8 mph - N/A   Overcast
8:34 AM 35.1 °F 31.0 °F 32.0 °F 89% 29.74 in 10.0 mi South 4.6 mph - N/A   Overcast
8:52 AM 37.0 °F 32.4 °F 30.9 °F 79% 29.76 in 10.0 mi WSW 5.8 mph - N/A   Overcast
9:52 AM 39.0 °F 34.8 °F 28.9 °F 67% 29.78 in 10.0 mi WSW 5.8 mph - N/A   Overcast
10:52 AM 39.0 °F 31.8 °F 28.0 °F 65% 29.80 in 10.0 mi WNW 11.5 mph 20.7 mph N/A   Overcast
11:52 AM 39.0 °F 32.8 °F 28.0 °F 65% 29.82 in 10.0 mi WNW 9.2 mph - N/A   Mostly Cloudy
12:52 PM 39.0 °F 30.3 °F 27.0 °F 62% 29.81 in 10.0 mi WNW 16.1 mph 27.6 mph N/A   Mostly Cloudy
1:52 PM 39.0 °F 32.3 °F 26.1 °F 60% 29.79 in 10.0 mi West 10.4 mph 20.7 mph N/A   Partly Cloudy
2:52 PM 39.0 °F 32.8 °F 26.1 °F 60% 29.78 in 10.0 mi West 9.2 mph - N/A   Clear
3:52 PM 37.9 °F 32.1 °F 26.1 °F 62% 29.81 in 10.0 mi West 8.1 mph 20.7 mph N/A   Clear
4:52 PM 37.9 °F 32.1 °F 26.1 °F 62% 29.82 in 10.0 mi West 8.1 mph - N/A   Clear
5:52 PM 37.0 °F 34.5 °F 26.1 °F 65% 29.83 in 10.0 mi West 3.5 mph - N/A   Clear
6:52 PM 34.0 °F 31.0 °F 27.0 °F 75% 29.86 in 10.0 mi South 3.5 mph - N/A   Clear
7:52 PM 33.1 °F - 28.9 °F 85% 29.83 in 10.0 mi Calm Calm - N/A   Clear
8:52 PM 36.0 °F 31.1 °F 26.1 °F 67% 29.84 in 10.0 mi West 5.8 mph - N/A   Mostly Cloudy
9:52 PM 36.0 °F 30.3 °F 26.1 °F 67% 29.86 in 10.0 mi West 6.9 mph - N/A   Overcast
10:52 PM 36.0 °F 31.1 °F 25.0 °F 64% 29.87 in 10.0 mi West 5.8 mph - N/A   Overcast
11:52 PM 35.1 °F 27.4 °F 24.1 °F 64% 29.87 in 10.0 mi West 10.4 mph - N/A   Overcast